Location: Arbon
(43.0005°N, 0.7472°E)
Time: 02:19:32
(UTC+00:00)

NOSS 2-3 (E) - Pass Details

Date: 07 August 2020
Orbit: 572 x 1639 km, 63.4° (Epoch: 24 September)

Event Time Altitude Azimuth Distance (km) Brightness Sun altitude
Exits shadow 03:58:05 13° 239° (WSW) 1,705 5.1 -9.9°
Maximum altitude 04:01:38 49° 313° (NW) 826 4.1 -9.4°
Drops below altitude 10° 04:06:27 10° 28° (NNE) 2,250 7.5 -8.6°
Sets 04:09:11 0° 34° (NE) 3,329 8.7 -8.2°
